[[{"header":{"parameterUnit":"m.s-1","parameterCategory":1,"la1":30.2991,"la2":30.254,"lo1":-89.0895,"lo2":-89.0444,"dy":0.0017,"dx":0.0017,"nx":28,"ny":28,"refTime":"2023-09-28T09:00:00:Z","depth":0,"parameterNumber":2,"parameterNumberName":"U-component_of_WINDS"},"data":[0,0,0,0,0,0,0,0,0,0,0,0,0,0,0,0,0,0,0,0,0,0,0,0,0,0,0,0,0,0,0,0,0,0,0,0,0,0,0,0,0,0,0,0,0,0,0,0,0,0,0,0,0,0,0,0,0,0,-6.0808,-6.0809,0,-6.0869,-6.087,-6.0871,-6.0722,-6.0717,-6.0712,-6.0708,-6.077,-6.0776,-6.0782,0,0,0,0,0,0,0,0,0,0,0,0,0,-6.0562,-6.0567,-6.0808,-6.0809,-6.081,-6.0869,-6.087,-6.0871,-6.0723,-6.0717,-6.0711,-6.0706,-6.0768,-6.0775,-6.0783,0,0,0,0,0,0,0,0,0,0,0,0,0,-6.0651,-6.0569,-6.0808,-6.0743,-6.0738,-6.0869,-6.087,-6.0871,-6.0724,-6.0717,-6.071,-6.0703,-6.0766,-6.0775,-6.0784,-6.0981,0,0,-6.0811,-6.0815,0,0,0,0,0,0,0,0,-6.0646,-6.066,-6.0752,-6.0747,-6.0742,-6.0781,-6.0806,-6.0908,-6.0726,-6.0729,-6.0708,-6.07,-6.0779,-6.0787,-6.0814,-6.0984,-6.0987,-6.0812,-6.0818,-6.0822,-6.0824,0,0,0,0,0,0,0,-6.064,-6.0656,-6.0832,-6.0753,-6.0747,-6.071,-6.0715,-6.0825,-6.0793,-6.0728,-6.0718,-6.0727,-6.0775,-6.0806,-6.0814,-6.0988,-6.0812,-6.082,-6.0826,-6.0829,-6.1322,-6.1329,0,0,0,0,0,0,-6.0642,-6.0652,-6.083,-6.0834,-6.0675,-6.072,-6.0726,-6.0775,-6.0791,-6.0787,-6.0733,-6.072,-6.0794,-6.0804,-6.0816,-6.1047,-6.0822,-6.083,-6.0835,-6.1315,-6.1324,-6.1332,0,0,0,0,0,0,-6.0637,-6.0659,-6.0828,-6.074,-6.0759,-6.0732,-6.0789,-6.078,-6.081,-6.0795,-6.0788,-6.077,-6.0788,-6.0803,-6.0941,-6.1047,-6.0834,-6.0842,-6.1306,-6.1317,-6.1328,-6.1513,0,0,0,0,0,0,-6.0631,-6.0659,-6.0734,-6.0743,-6.0764,-6.0953,-6.0796,-6.0787,-6.0826,-6.081,-6.0828,-6.0824,-6.0784,-6.0928,-6.095,-6.1056,-6.0849,-6.1296,-6.1311,-6.1324,-6.1497,-6.1529,-6.1557,0,0,0,0,0,-6.0623,-6.0783,-6.0738,-6.076,-6.0857,-6.0959,-6.0971,-6.0922,-6.0836,-6.091,-6.0901,-6.0823,-6.1033,-6.0944,-6.0967,-6.1077,-6.1289,-6.1307,-6.1323,-6.1484,-6.1523,-6.1556,0,0,0,0,0,0,-6.0786,-6.0783,-6.0733,-6.0901,-6.0932,-6.0934,-6.1026,-6.0965,-6.102,-6.1002,-6.0939,-6.0944,-6.1094,-6.1099,-6.1,-6.1269,-6.1146,-6.1169,-6.126,-6.1297,-6.1326,-6.1321,-6.0857,0,0,0,0,0,-6.0842,-6.0925,-6.0918,-6.1067,-6.1085,-6.1054,-6.1096,-6.1056,-6.1084,-6.1096,-6.1096,-6.1127,-6.12,-6.1249,-6.1315,-6.1497,-6.1499,-6.1585,-6.1615,-6.1639,-6.1659,-6.1756,-6.1794,-6.1389,-6.1388,-6.1388,0,0,-6.0958,-6.0966,-6.1023,-6.11,-6.1119,-6.1206,-6.1065,-6.1163,-6.1227,-6.1111,-6.1241,-6.1243,-6.1273,-6.1434,-6.1505,-6.1443,-6.1772,-6.1661,-6.1681,-6.1687,-6.1777,-6.1816,-6.185,-6.14,-6.1398,-6.1396,0,0,-6.1213,-6.1229,-6.1354,-6.1376,-6.1406,-6.1384,-6.1415,-6.1426,-6.1423,-6.1553,-6.1467,-6.1542,-6.1669,-6.1693,-6.1723,-6.1989,-6.1919,-6.2012,-6.2167,-6.2262,-6.2294,-6.2322,-6.2416,-6.2451,-6.2032,-6.2033,-6.2033,0,-6.1353,-6.1481,-6.1426,-6.1531,-6.1567,-6.1466,-6.1593,-6.1616,-6.1667,-6.1694,-6.1624,-6.1781,-6.1794,-6.1959,-6.2024,-6.2052,-6.2084,-6.2009,-6.2294,-6.2321,-6.2347,-6.2436,-6.2471,-6.2044,-6.2042,-6.2041,-6.204,0,-6.1651,-6.1742,-6.1839,-6.1891,-6.1938,-6.2053,-6.2016,-6.2071,-6.2027,-6.2013,-6.2146,-6.2158,-6.2225,-6.2261,-6.2219,-6.2421,-6.2382,-6.2304,-6.2179,-6.2397,-6.248,-6.2513,-6.2059,-6.2055,-6.2052,-6.2049,0,0,-6.201,-6.203,-6.2067,-6.2089,-6.2115,-6.2184,-6.2294,-6.236,-6.2407,-6.2446,-6.2537,-6.2647,-6.2575,-6.2608,-6.2568,-6.2652,-6.2861,-6.2564,-6.2563,-6.2618,-6.3084,-6.3141,-6.3181,-6.2816,-6.2822,-6.2827,-6.3081,0,-6.2261,-6.2451,-6.2405,-6.2593,-6.2675,-6.2582,-6.2678,-6.2704,-6.2695,-6.2763,-6.2751,-6.283,-6.273,-6.2749,-6.2828,-6.2819,-6.2954,-6.28,-6.2899,-6.2903,-6.2893,-6.3225,-6.3286,-6.3524,-6.3113,-6.3118,-6.3122,0,-6.258,-6.2631,-6.2827,-6.284,-6.2872,-6.296,-6.3016,-6.3083,-6.3111,-6.3098,-6.3136,-6.308,-6.3189,-6.3064,-6.3213,-6.311,-6.3148,-6.315,-6.3158,-6.3164,-6.3025,-6.3239,-6.3599,-6.3635,-6.3172,-6.3168,-6.3165,0,-6.2821,-6.2938,-6.3071,-6.3093,-6.3111,-6.3175,-6.3185,-6.3207,-6.3249,-6.3298,-6.3325,-6.3387,-6.342,-6.3469,-6.3431,-6.3344,-6.3587,-6.3459,-6.3578,-6.358,-6.3633,-6.363,-6.4003,-6.366,-6.3659,-6.3658,-6.3657,0,-6.3105,-6.3229,-6.3179,-6.3261,-6.3396,-6.3343,-6.3478,-6.3478,-6.3498,-6.3578,-6.3501,-6.3577,-6.3522,-6.3594,-6.3565,-6.3693,-6.3709,-6.3701,-6.3692,-6.3708,-6.3709,-6.3731,-6.3713,-6.3668,-6.3666,-6.3664,-6.3662,0,-6.3397,-6.3369,-6.3507,-6.3513,-6.3518,-6.3618,-6.3623,-6.3698,-6.3683,-6.3785,-6.3805,-6.3782,-6.3862,-6.3829,-6.3915,-6.3895,-6.4059,-6.4028,-6.4049,-6.4041,-6.4162,-6.4151,-6.4562,-6.4613,-6.4238,-6.4241,-6.4244,0,-6.358,-6.3673,-6.369,-6.3738,-6.3754,-6.3832,-6.3874,-6.3826,-6.3873,-6.3913,-6.3984,-6.4058,-6.4114,-6.4247,-6.4238,-6.4303,-6.4272,-6.4412,-6.4281,-6.4294,-6.4273,-6.4268,-6.4277,-6.4438,-6.4442,-6.4446,-6.4448,0,-6.3908,-6.389,-6.3954,-6.4015,-6.4068,-6.4113,-6.4151,-6.4195,-6.4148,-6.4206,-6.4287,-6.4331,-6.4418,-6.4493,-6.455,-6.4561,-6.4498,-6.449,-6.4521,-6.4537,-6.4546,-6.4542,-6.4119,-6.448,-6.4477,-6.4475,-6.4473,-6.4472,-6.415,-6.4228,-6.4252,-6.4327,-6.4351,-6.4389,-6.446,-6.4453,-6.4521,-6.4588,-6.4555,-6.465,-6.4676,-6.4747,-6.4766,-6.4839,-6.4785,-6.483,-6.4841,-6.4853,-6.4868,-6.4535,-6.485,-6.4849,-6.4848,-6.4847,-6.4847,0,-6.4473,-6.4484,-6.4553,-6.461,-6.4669,-6.4604,-6.4643,-6.4697,-6.4781,-6.4811,-6.4868,-6.4962,-6.5034,-6.503,-6.5097,-6.5156,-6.5129,-6.5175,-6.517,-6.5173,-6.4914,-6.488,-6.5196,-6.5196,-6.5196,-6.5196,-6.5196,-6.5196,-6.4648,-6.4776,-6.4761,-6.4901,-6.491,-6.5003,-6.5031,-6.5065,-6.5088,-6.5197,-6.5256,-6.5253,-6.527,-6.5337,-6.54,-6.5397,-6.5424,-6.5482,-6.5468,-6.5226,-6.5191,-6.5158,-6.5126,-6.5489,-6.5489,-6.5721,-6.5723,-6.5725]},{"header":{"parameterUnit":"m.s-1","parameterCategory":1,"la1":30.2991,"la2":30.254,"lo1":-89.0895,"lo2":-89.0444,"dy":0.0017,"dx":0.0017,"nx":28,"ny":28,"refTime":"2023-09-28T09:00:00:Z","depth":0,"parameterNumber":3,"parameterNumberName":"V-component_of_WINDS"},"data":[0,0,0,0,0,0,0,0,0,0,0,0,0,0,0,0,0,0,0,0,0,0,0,0,0,0,0,0,0,0,0,0,0,0,0,0,0,0,0,0,0,0,0,0,0,0,0,0,0,0,0,0,0,0,0,0,0,0,-2.5514,-2.5514,0,-2.5493,-2.5492,-2.5492,-2.5446,-2.5445,-2.5444,-2.5443,-2.5421,-2.5421,-2.5421,0,0,0,0,0,0,0,0,0,0,0,0,0,-2.5513,-2.5514,-2.5514,-2.5514,-2.5514,-2.5493,-2.5492,-2.5492,-2.5446,-2.5445,-2.5444,-2.5443,-2.542,-2.5421,-2.5421,0,0,0,0,0,0,0,0,0,0,0,0,0,-2.5505,-2.5514,-2.5514,-2.5488,-2.5485,-2.5493,-2.5492,-2.5492,-2.5446,-2.5445,-2.5443,-2.5442,-2.542,-2.5421,-2.5421,-2.5452,0,0,-2.5422,-2.5423,0,0,0,0,0,0,0,0,-2.5506,-2.5505,-2.5492,-2.549,-2.5487,-2.547,-2.5484,-2.5478,-2.5447,-2.5461,-2.5443,-2.5441,-2.5438,-2.5437,-2.5436,-2.5451,-2.545,-2.5422,-2.5423,-2.5423,-2.5423,0,0,0,0,0,0,0,-2.5506,-2.5506,-2.5506,-2.5492,-2.5489,-2.5477,-2.5474,-2.5483,-2.5458,-2.546,-2.5456,-2.5454,-2.5437,-2.5436,-2.5435,-2.5449,-2.5422,-2.5423,-2.5423,-2.5423,-2.5485,-2.5486,0,0,0,0,0,0,-2.5511,-2.5507,-2.5506,-2.5505,-2.5493,-2.5478,-2.5475,-2.5477,-2.5458,-2.5453,-2.5456,-2.5452,-2.5436,-2.5435,-2.5434,-2.5467,-2.5423,-2.5423,-2.5424,-2.5484,-2.5485,-2.5487,0,0,0,0,0,0,-2.5511,-2.5511,-2.5507,-2.5505,-2.5503,-2.5479,-2.5482,-2.5477,-2.5477,-2.5454,-2.545,-2.546,-2.5435,-2.5434,-2.5447,-2.5465,-2.5423,-2.5424,-2.5482,-2.5484,-2.5486,-2.5533,0,0,0,0,0,0,-2.5511,-2.5512,-2.5524,-2.5505,-2.5504,-2.5521,-2.5484,-2.5478,-2.5478,-2.5473,-2.5457,-2.5453,-2.5434,-2.5447,-2.5448,-2.5465,-2.5424,-2.548,-2.5483,-2.5485,-2.553,-2.5536,-2.5542,0,0,0,0,0,-2.5511,-2.5538,-2.5524,-2.5525,-2.5518,-2.5522,-2.5521,-2.5498,-2.5479,-2.549,-2.5476,-2.5453,-2.5464,-2.5449,-2.5449,-2.5467,-2.5479,-2.5482,-2.5485,-2.5527,-2.5535,-2.5542,0,0,0,0,0,0,-2.5559,-2.5535,-2.552,-2.5542,-2.5534,-2.5514,-2.5528,-2.5508,-2.5506,-2.5502,-2.5474,-2.547,-2.5487,-2.5479,-2.5462,-2.5494,-2.5467,-2.5471,-2.5499,-2.5507,-2.5513,-2.5514,-2.5424,0,0,0,0,0,-2.5573,-2.5578,-2.5557,-2.5578,-2.5575,-2.5552,-2.5553,-2.5536,-2.5527,-2.5524,-2.5511,-2.5503,-2.5503,-2.5505,-2.5505,-2.5529,-2.5523,-2.5541,-2.5547,-2.5553,-2.5555,-2.5565,-2.5572,-2.5497,-2.5497,-2.5497,0,0,-2.56,-2.5587,-2.5593,-2.5587,-2.558,-2.5585,-2.555,-2.5558,-2.5561,-2.5525,-2.5536,-2.5526,-2.5515,-2.5533,-2.5541,-2.5527,-2.5575,-2.5557,-2.5561,-2.5561,-2.5569,-2.5576,-2.5582,-2.5499,-2.5499,-2.5499,0,0,-2.5652,-2.5644,-2.5659,-2.5652,-2.564,-2.5625,-2.5629,-2.5611,-2.5603,-2.5614,-2.5586,-2.5589,-2.5593,-2.5585,-2.5582,-2.5629,-2.5607,-2.563,-2.5662,-2.5671,-2.5677,-2.5682,-2.5697,-2.5703,-2.5633,-2.5633,-2.5633,0,-2.5687,-2.5694,-2.567,-2.5679,-2.5676,-2.5644,-2.5658,-2.5652,-2.5642,-2.564,-2.5625,-2.5626,-2.5617,-2.5631,-2.5643,-2.5642,-2.5644,-2.5631,-2.5678,-2.5683,-2.5687,-2.5701,-2.5707,-2.5636,-2.5635,-2.5635,-2.5635,0,-2.5737,-2.5742,-2.5756,-2.5746,-2.5745,-2.5757,-2.5733,-2.5736,-2.5718,-2.5704,-2.5714,-2.5702,-2.5697,-2.57,-2.5684,-2.5712,-2.5703,-2.5684,-2.5656,-2.5698,-2.571,-2.5715,-2.5639,-2.5639,-2.5638,-2.5637,0,0,-2.5818,-2.5793,-2.5799,-2.5792,-2.5776,-2.578,-2.579,-2.5785,-2.5786,-2.578,-2.5786,-2.5789,-2.577,-2.5766,-2.5748,-2.5757,-2.5792,-2.5736,-2.5735,-2.5745,-2.5819,-2.5833,-2.5839,-2.5778,-2.5779,-2.578,-2.582,0,-2.5865,-2.588,-2.5858,-2.5878,-2.5881,-2.5849,-2.5857,-2.5848,-2.5835,-2.5835,-2.582,-2.5821,-2.5798,-2.5795,-2.5802,-2.5787,-2.5806,-2.5784,-2.5782,-2.5782,-2.5784,-2.5846,-2.5861,-2.5898,-2.5824,-2.5825,-2.5826,0,-2.5922,-2.5917,-2.5937,-2.5917,-2.5918,-2.5926,-2.5918,-2.592,-2.5908,-2.5897,-2.5893,-2.5871,-2.5878,-2.5853,-2.586,-2.5845,-2.5843,-2.5836,-2.5836,-2.5834,-2.5806,-2.5843,-2.591,-2.5915,-2.5834,-2.5833,-2.5832,0,-2.5976,-2.5975,-2.5986,-2.5982,-2.596,-2.5966,-2.5957,-2.5944,-2.5942,-2.5936,-2.5934,-2.5929,-2.5925,-2.5922,-2.5899,-2.5883,-2.5909,-2.5882,-2.5899,-2.5899,-2.5905,-2.5904,-2.597,-2.5907,-2.5907,-2.5907,-2.5907,0,-2.6029,-2.6042,-2.601,-2.6016,-2.6029,-2.6003,-2.6016,-2.6004,-2.5992,-2.5995,-2.5968,-2.5971,-2.5942,-2.5942,-2.5925,-2.5932,-2.5932,-2.5922,-2.5917,-2.5924,-2.5925,-2.5921,-2.5917,-2.5908,-2.5908,-2.5908,-2.5907,0,-2.6092,-2.6071,-2.608,-2.6059,-2.6054,-2.6064,-2.6045,-2.605,-2.6034,-2.6038,-2.6038,-2.6013,-2.6011,-2.5989,-2.5982,-2.597,-2.5984,-2.5975,-2.5988,-2.5984,-2.6002,-2.6,-2.6066,-2.6072,-2.6007,-2.6008,-2.6008,0,-2.6127,-2.6136,-2.6115,-2.6114,-2.6107,-2.6107,-2.6104,-2.6079,-2.6077,-2.6063,-2.6069,-2.6065,-2.606,-2.6058,-2.6039,-2.6033,-2.6022,-2.6046,-2.6021,-2.6027,-2.602,-2.6019,-2.6019,-2.6051,-2.6052,-2.6053,-2.6053,0,-2.6189,-2.6178,-2.6175,-2.6168,-2.6166,-2.616,-2.6151,-2.6153,-2.6124,-2.6123,-2.6121,-2.6117,-2.6109,-2.6105,-2.6095,-2.6085,-2.6064,-2.6061,-2.6064,-2.607,-2.6076,-2.6071,-2.6,-2.6059,-2.6059,-2.6058,-2.6058,-2.6058,-2.6237,-2.6243,-2.6228,-2.6226,-2.6216,-2.6209,-2.6211,-2.6196,-2.6193,-2.6185,-2.617,-2.6169,-2.6155,-2.614,-2.6132,-2.613,-2.6118,-2.6123,-2.6124,-2.6125,-2.6128,-2.6078,-2.6129,-2.6128,-2.6128,-2.6128,-2.6128,0,-2.6296,-2.6285,-2.6283,-2.6272,-2.6269,-2.625,-2.6239,-2.6238,-2.6238,-2.6226,-2.6222,-2.6218,-2.6213,-2.6193,-2.6186,-2.6188,-2.6178,-2.6187,-2.6185,-2.6183,-2.614,-2.6137,-2.6195,-2.6195,-2.6195,-2.6195,-2.6195,-2.6195,-2.6327,-2.6334,-2.6321,-2.6323,-2.6312,-2.631,-2.6305,-2.6298,-2.6288,-2.6285,-2.6281,-2.6268,-2.6253,-2.6244,-2.6238,-2.6232,-2.623,-2.6242,-2.6232,-2.6193,-2.6186,-2.618,-2.6177,-2.6242,-2.6242,-2.6275,-2.6275,-2.6275]}]]